Location: *
(53.9002°N, 27.5624°E)
Time: 00:38:25
(UTC+00:00)

GEOS 3 Rocket - Pass Details

Date: 12 November 2019
Orbit: 786 x 833 km, 115.0° (Epoch: 05 December)

Event Time Altitude Azimuth Distance (km) Brightness Sun altitude
Exits shadow 15:36:26 13° 52° (NE) 2,193 5.3 -11.7°
Maximum altitude 15:41:03 60° 131° (SE) 933 3.8 -12.4°
Drops below altitude 10° 15:46:15 10° 211° (SSW) 2,417 6.7 -13.1°
Sets 15:48:36 0° 215° (SW) 3,352 7.6 -13.5°
